Regional Weather Roundup
Issued by NWS

Home | Current Version | Previous Version | Graphics & Text | Print | Product List | Glossary On
Versions: 1 2 3 4 5 6 7 8 9 10 11 12 13 14 15 16 17 18 19 20 21 22 23 24 25 26 27 28 29 30 31 32 33 34 35 36 37 38 39 40 41 42 43 44 45 46 47 48 49 50
000
ASUS43 KLSX 181507
RWRMO

WEATHER SUMMARY FOR MISSOURI
NATIONAL WEATHER SERVICE SPRINGFIELD MO
1000 AM CDT FRI AUG 18 2017

NOTE: "FAIR" INDICATES FEW OR NO CLOUDS BELOW 12,000 FEET WITH NO
       SIGNIFICANT WEATHER AND/OR OBSTRUCTIONS TO VISIBILITY.
       CURRENT SKY AND/OR WEATHER CONDITIONS ARE NOT AVAILABLE FOR
       CHILLICOTHE AND FARMINGTON.

MOZ001>031-035>038-043-044-053-054-181600-
...NORTHERN AND WESTERN MISSOURI...

CITY           SKY/WX    TMP DP  RH WIND       PRES   REMARKS
KANSAS CTY INT CLOUDY    72  65  78 SW12      29.98R
KANSAS C DTWN  MOSUNNY   76  65  68 W8        29.98R
LEE`S SUMMIT   CLOUDY    74  65  73 SW8       29.99S HAZE
ST JOSEPH      MOSUNNY   72  67  84 S6        29.92F
CHILLICOTHE      N/A     75  67  76 S6        29.96F
KIRKSVILLE     MOSUNNY   79  63  57 SW6       29.98S

$$
MOZ066>068-077>081-088>096-101>105-181600-
...SOUTHWEST MISSOURI...

CITY           SKY/WX    TMP DP  RH WIND       PRES   REMARKS
SPRINGFIELD    CLOUDY    73  70  90 SE5       30.04R
JOPLIN         CLOUDY    76  75  97 SW6       30.04R
BRANSON        CLOUDY    73  73 100 SW7       30.08R FOG

$$
MOZ032>034-039>042-045>050-055>058-069>072-181600-
...CENTRAL MISSOURI...

CITY           SKY/WX    TMP DP  RH WIND       PRES   REMARKS
COLUMBIA       SUNNY     77  63  61 W7        30.00S
JEFFERSON CITY SUNNY     76  67  73 CALM      30.00R
ROLLA          SUNNY     76  63  64 W9        30.04R
SEDALIA        SUNNY     78  68  71 SW12      30.01R
WHITEMAN AFB   PTSUNNY   77  68  74 SW8       29.97F
WARRENSBURG    PTSUNNY   73  66  78 S8        29.99R
OSAGE BEACH    SUNNY     74  65  73 W5        30.03R

$$
MOZ051-052-059>065-181600-
...EAST CENTRAL MISSOURI...

CITY           SKY/WX    TMP DP  RH WIND       PRES   REMARKS
ST LOUIS INTL  MOSUNNY   78  64  61 NW9       30.01R
SPIRIT OF STL  SUNNY     77  67  71 W5        30.00R
ST CHARLES     SUNNY     76  64  66 W7        29.99R

$$
MOZ072>076-082>087-097>100-106>115-181600-
...SOUTH CENTRAL AND SOUTHEAST MISSOURI...

CITY           SKY/WX    TMP DP  RH WIND       PRES   REMARKS
CAPE GIRARDEAU SUNNY     75  67  76 W5        30.00R
FARMINGTON     SUNNY     77  65  66 SW3       30.03R
POPLAR BLUFF   SUNNY     79  67  66 VRB3      30.01R
WEST PLAINS    SUNNY     77  65  66 W7        30.07R

$$


USA.gov is the U.S. government's official web portal to all federal, state and local government web resources and services.